This is the latest recevied weather packets stored in our database for station/object N1UNH. If no packets are shown the sender has not sent any weather packets the latest 10 day(s).
| Time | Temp. | Humidity | Pressure | Rain* | Wind** | Luminosity | Snow |
|---|---|---|---|---|---|---|---|
| 1778101028 | 16.11° C | 95% | 1010.4 hPa | 0 mm | - | 39 W/m² | - |
| 1778100728 | 16.11° C | 95% | 1010.5 hPa | 1.27 mm | - | 55 W/m² | - |
| 1778100425 | 16.11° C | 95% | 1010.3 hPa | 1.27 mm | - | 113 W/m² | - |
| 1778100123 | 16.11° C | 95% | 1010.5 hPa | 0 mm | - | 100 W/m² | - |
| 1778099821 | 16.11° C | 95% | 1010.3 hPa | 0 mm | - | 100 W/m² | - |
| 1778099517 | 16.11° C | 95% | 1010.5 hPa | 0 mm | - | 112 W/m² | - |
| 1778099215 | 16.11° C | 95% | 1010.5 hPa | 1.78 mm | - | 104 W/m² | - |
| 1778098911 | 16.11° C | 95% | 1010.4 hPa | 1.78 mm | - | 137 W/m² | - |
| 1778098608 | 16.11° C | 95% | 1010.5 hPa | 3.05 mm | - | 124 W/m² | - |
| 1778098304 | 16.11° C | 95% | 1010.5 hPa | 3.05 mm | - | 117 W/m² | - |
| 1778098001 | 16.11° C | 95% | 1010.8 hPa | 1.78 mm | - | 68 W/m² | - |
| 1778097698 | 16.11° C | 95% | 1010.9 hPa | 0 mm | - | 71 W/m² | - |
| 1778097395 | 16.11° C | 94% | 1010.6 hPa | 1.78 mm | - | 97 W/m² | - |
| 1778097091 | 16.11° C | 94% | 1010.9 hPa | 3.05 mm | - | 99 W/m² | - |
| 1778096789 | 16.11° C | 94% | 1011 hPa | 1.27 mm | - | 67 W/m² | - |
| 1778096485 | 16.11° C | 94% | 1011.1 hPa | 1.78 mm | - | 56 W/m² | - |
| 1778096183 | 16.11° C | 94% | 1010.9 hPa | 1.78 mm | - | 42 W/m² | - |
| 1778095880 | 16.11° C | 94% | 1011.1 hPa | 0 mm | - | 65 W/m² | - |
| 1778095576 | 16.11° C | 94% | 1011.1 hPa | 0 mm | - | 63 W/m² | - |
| 1778095272 | 16.11° C | 94% | 1011.3 hPa | 0 mm | - | 49 W/m² | - |
| 1778094969 | 16.11° C | 94% | 1011 hPa | 0 mm | - | 70 W/m² | - |
| 1778094665 | 16.11° C | 94% | 1011 hPa | 0 mm | - | 61 W/m² | - |
| 1778094363 | 16.11° C | 94% | 1011.1 hPa | 0 mm | - | 86 W/m² | - |
| 1778094059 | 16.11° C | 94% | 1011 hPa | 0 mm | - | 91 W/m² | - |
| 1778093757 | 16.11° C | 94% | 1011.2 hPa | 1.27 mm | - | 82 W/m² | - |
* Rain latest hour (hover to see other rain measurements)
** Current wind speed in m/s (hover to see current wind gust speed)